Lid_Strength_Index
1 0 0 0 0 0 0 1 -0 -0 -0 -0 -0 -0 -1 0 0 -0 0 1 1 1
0 0 1 0 -0 -0 0 0 -0 -0 -0 -0 -0 -0 -0 0 0 0 -0 0 1 1
0 0 0 -0 0 0 0 -0 -0 -0 -0 -0 -0 -0 -0 0 -0 0 0 0 1 1
0 0 0 0 -0 -0 0 -0 0 0 0 0 0 -0 -0 0 0 1 1 1 1 1
1 1 1 0 0 -0 0 0 0 0 0 0 0 0 0 1 1 1 1 1 1 1
1 1 1 1 0 0 0 0 0 0 1 1 1 0 0 1 1 1 1 1 1 1
1 1 1 0 0 0 0 1 0 0 1 1 0 1 1 1 1 0 1 0 0 1
1 1 0 1 0 0 0 0 0 0 1 1 1 1 1 1 1 1 1 1 0 0
1 1 1 1 1 1 1 1 0 1 1 1 1 7 5 2 1 1 1 1 1 1
1 1 1 1 1 1 1 1 1 1 1 2 1 8 7 4 0 1 1 1 1 2
1 1 1 1 1 1 1 1 1 1 1 2 4 9 8 5 0 0 1 1 1 1
1 1 1 1 1 1 1 1 1 1 1 3 6 10 9 3 1 1 1 0 1 1
1 1 1 1 1 1 1 1 1 1 1 5 4 10 9 3 1 2 2 1 3 6
1 1 1 1 1 1 1 1 1 1 1 1 2 5 10 7 1 1 1 1 1 1